Regional Weather Roundup
Issued by NWS

Home | Current Version | Previous Version | Graphics & Text | Print | Product List | Glossary On
Versions: 1 2 3 4 5 6 7 8 9 10 11 12 13 14 15 16 17 18 19 20 21 22 23 24 25 26 27 28 29 30 31 32 33 34 35 36 37 38 39 40 41 42 43 44 45 46 47 48 49 50
515
ASUS43 KLMK 011710
RWRKY
KENTUCKY REGIONAL WEATHER ROUNDUP
NATIONAL WEATHER SERVICE LOUISVILLE KY
100 PM EDT SAT OCT 01 2016

NOTE "FAIR" INDICATES FEW OR NO CLOUDS BELOW 12,000 FEET
WITH NO SIGNIFICANT WEATHER AND/OR OBSTRUCTIONS TO VISIBILITY.

KYZ001>023-026-027-061>063-070>075-011800-
WESTERN AND SOUTH CENTRAL KENTUCKY

CITY           SKY/WX    TMP DP  RH WIND       PRES   REMARKS
PADUCAH        PTSUNNY   70  60  70 W9        30.05F
HENDERSON      CLOUDY    63  59  88 W5        30.02S
OWENSBORO      LGT RAIN N/A N/A N/A W6        30.04S FOG
HOPKINSVILLE   PTSUNNY   67  58  72 SW13      30.06F
BOWLING GREEN  CLOUDY    67  60  78 SW9       30.06F
GLASGOW        CLOUDY    64  62  90 SW5       30.07F
$$

KYZ024-025-028>034-038-045-046-053-011800-
NORTH CENTRAL KENTUCKY

CITY           SKY/WX    TMP DP  RH WIND       PRES   REMARKS
LOUISVILLE/SDF CLOUDY    65  58  78 S7        30.05S
LOUISVILLE/LOU CLOUDY    63  58  83 VRB5      30.05F HAZE
FORT KNOX      CLOUDY    63  59  87 S5        30.03S
$$

KYZ035>037-039>044-047>052-055>060-089>105-011800-
NORTHEAST KENTUCKY

CITY           SKY/WX    TMP DP  RH WIND       PRES   REMARKS
LEXINGTON      CLOUDY    62  55  77 S9        30.07F
COVINGTON      CLOUDY    62  56  80 S7        30.06S
FRANKFORT      LGT RAIN  61  57  87 S6        30.06S
$$

KYZ054-064>069-076>088-106>120-011800-
SOUTHEAST KENTUCKY

CITY           SKY/WX    TMP DP  RH WIND       PRES   REMARKS
JACKSON        CLOUDY    63  54  72 VRB3      30.10F
LONDON         CLOUDY    61  52  72 SW5       30.11S
SOMERSET       CLOUDY    61  54  77 S5        30.11F
MIDDLESBORO    CLOUDY    63  52  67 S3        30.13F
MONTICELLO     CLOUDY    64  56  75 W14       30.11F
$$





USA.gov is the U.S. government's official web portal to all federal, state and local government web resources and services.